Location: Bergnershof
(48.9468°N, 10.9431°E)
Time: 15:10:32
(UTC+00:00)

Cosmos 2333 Rocket - Pass Details

Date: 01 July 2021
Orbit: 841 x 861 km, 70.8° (Epoch: 28 July)

Event Time Altitude Azimuth Distance (km) Brightness Sun altitude
Rises 21:34:04 0° 282° (WNW) 3,425 5.9 -14.2°
Reaches altitude 10° 21:38:29 10° 314° (NW) 2,487 5.8 -14.5°
Maximum altitude 21:40:27 12° 335° (NNW) 2,364 5.9 -14.6°
Drops below altitude 10° 21:42:26 10° 355° (N) 2,485 5.8 -14.8°
Sets 21:46:52 0° 27° (NNE) 3,418 6.0 -15.1°
